This is the latest recevied weather packets stored in our database for station/object KA3RQR. If no packets are shown the sender has not sent any weather packets the latest 10 day(s).
| Time | Temp. | Humidity | Pressure | Rain* | Wind** | Luminosity | Snow |
|---|---|---|---|---|---|---|---|
| 1777379073 | 11.11° C | 70% | 1021.5 hPa | 0 mm | - | 81 W/m² | - |
| 1777378767 | 11.11° C | 71% | 1021.3 hPa | 0 mm | - | 80 W/m² | - |
| 1777378465 | 11.11° C | 72% | 1021.7 hPa | 0 mm | - | 72 W/m² | - |
| 1777378161 | 11.11° C | 73% | 1021.8 hPa | 0 mm | - | 65 W/m² | - |
| 1777377858 | 10.56° C | 74% | 1021.7 hPa | 0 mm | - | 51 W/m² | - |
| 1777377553 | 10.56° C | 75% | 1022.1 hPa | 0 mm | - | 37 W/m² | - |
| 1777377248 | 10.56° C | 76% | 1022.2 hPa | 0 mm | - | 44 W/m² | - |
| 1777376946 | 10.56° C | 75% | 1022.2 hPa | 0 mm | - | 48 W/m² | - |
| 1777376643 | 10.56° C | 76% | 1022.2 hPa | 0 mm | - | 35 W/m² | - |
| 1777376341 | 10.56° C | 77% | 1021.9 hPa | 0 mm | - | 24 W/m² | - |
| 1777376035 | 10° C | 77% | 1021.7 hPa | 0 mm | - | 21 W/m² | - |
| 1777375735 | 10° C | 78% | 1021.7 hPa | 0 mm | - | 20 W/m² | - |
| 1777375430 | 10° C | 77% | 1021.6 hPa | 0 mm | - | 21 W/m² | - |
| 1777375127 | 10° C | 77% | 1021.3 hPa | 0 mm | - | 21 W/m² | - |
| 1777374826 | 10° C | 77% | 1021.1 hPa | 0 mm | - | 19 W/m² | - |
| 1777374523 | 10° C | 77% | 1021.2 hPa | 0 mm | - | 18 W/m² | - |
| 1777374220 | 10° C | 77% | 1021.4 hPa | 0 mm | - | 16 W/m² | - |
| 1777373916 | 10° C | 78% | 1021.4 hPa | 0 mm | - | 15 W/m² | - |
| 1777373613 | 10° C | 78% | 1021.8 hPa | 0 mm | - | 12 W/m² | - |
| 1777373310 | 10° C | 78% | 1021.6 hPa | 0 mm | - | 10 W/m² | - |
| 1777373005 | 10° C | 79% | 1021.5 hPa | 0 mm | - | 8 W/m² | - |
| 1777372701 | 10° C | 78% | 1021.5 hPa | 0 mm | - | 6 W/m² | - |
| 1777372400 | 10° C | 78% | 1021.5 hPa | 0 mm | - | 4 W/m² | - |
| 1777372098 | 10° C | 79% | 1021.5 hPa | 0 mm | - | 3 W/m² | - |
| 1777371794 | 10° C | 78% | 1021.4 hPa | 0 mm | - | 0 W/m² | - |
* Rain latest hour (hover to see other rain measurements)
** Current wind speed in m/s (hover to see current wind gust speed)